• In Hungary
  • List of Countries
  • For 7 days
  • Water Temperature
  • Satellite Maps
  • Weather Map
  • News
  • Weather Widgets
  • user-avatar
    Login

    Hourly Weather Bangalore

    Today, 16 July, Monday

    Time Temperature Precipitation Wind Pressure Humidity
    00:00 +23°C° 0 mm 6 mps 680 mmHg 78%
    01:00 +22°C° 0 mm 7 mps 680 mmHg 78%
    02:00 +22°C° 0 mm 7 mps 679 mmHg 79%
    03:00 +22°C° 0 mm 7 mps 679 mmHg 79%
    04:00 +22°C° 0 mm 7 mps 679 mmHg 79%
    05:00 +22°C° 0 mm 4 mps 679 mmHg 78%
    06:00 +23°C° 0 mm 6 mps 679 mmHg 75%
    07:00 +24°C° 0 mm 7 mps 680 mmHg 72%
    08:00 +26°C° 0 mm 9 mps 680 mmHg 68%
    09:00 +26°C° 0 mm 9 mps 680 mmHg 67%
    10:00 +27°C° 0 mm 10 mps 681 mmHg 65%
    11:00 +28°C° 0 mm 9 mps 681 mmHg 60%
    12:00 +28°C° 0.1 mm 10 mps 680 mmHg 59%
    13:00 +29°C° 0.1 mm 10 mps 680 mmHg 57%
    14:00 +29°C° 0.1 mm 10 mps 680 mmHg 55%
    15:00 +27°C° 0.1 mm 10 mps 680 mmHg 60%
    16:00 +27°C° 0.1 mm 10 mps 680 mmHg 61%
    17:00 +27°C° 0 mm 8 mps 679 mmHg 60%
    18:00 +26°C° 0 mm 8 mps 680 mmHg 63%
    19:00 +24°C° 0 mm 8 mps 680 mmHg 65%
    20:00 +23°C° 0 mm 8 mps 680 mmHg 68%
    21:00 +23°C° 0 mm 8 mps 681 mmHg 70%
    22:00 +23°C° 0 mm 8 mps 681 mmHg 71%
    23:00 +22°C° 0 mm 8 mps 681 mmHg 73%

    Tomorrow, 17 July, Tuesday

    Time Temperature Precipitation Wind Pressure Humidity
    00:00 +22°C° 0 mm 8 mps 681 mmHg 74%
    01:00 +22°C° 0 mm 8 mps 680 mmHg 74%
    02:00 +22°C° 0 mm 8 mps 680 mmHg 74%
    03:00 +22°C° 0 mm 8 mps 680 mmHg 75%
    04:00 +22°C° 0 mm 8 mps 680 mmHg 76%
    05:00 +22°C° 0 mm 7 mps 680 mmHg 77%
    06:00 +23°C° 0 mm 8 mps 680 mmHg 75%
    07:00 +23°C° 0 mm 8 mps 681 mmHg 72%
    08:00 +24°C° 0 mm 9 mps 681 mmHg 70%
    09:00 +26°C° 0 mm 9 mps 681 mmHg 65%
    10:00 +27°C° 0 mm 10 mps 681 mmHg 61%
    11:00 +28°C° 0 mm 10 mps 682 mmHg 57%
    12:00 +29°C° 0.1 mm 10 mps 681 mmHg 56%
    13:00 +29°C° 0.1 mm 10 mps 681 mmHg 55%
    14:00 +29°C° 0.1 mm 9 mps 680 mmHg 54%
    15:00 +28°C° 0 mm 9 mps 680 mmHg 56%
    16:00 +28°C° 0 mm 9 mps 680 mmHg 58%
    17:00 +27°C° 0 mm 9 mps 680 mmHg 60%
    18:00 +26°C° 0 mm 9 mps 680 mmHg 63%
    19:00 +26°C° 0 mm 8 mps 680 mmHg 67%
    20:00 +24°C° 0 mm 8 mps 681 mmHg 71%
    21:00 +23°C° 0 mm 7 mps 681 mmHg 72%
    22:00 +23°C° 0 mm 7 mps 681 mmHg 73%
    23:00 +23°C° 0 mm 7 mps 681 mmHg 74%

    Day after tomorrow, 18 July, Wednesday

    Time Temperature Precipitation Wind Pressure Humidity
    00:00 +23°C° 0 mm 7 mps 681 mmHg 75%
    01:00 +23°C° 0 mm 7 mps 681 mmHg 75%
    02:00 +23°C° 0 mm 7 mps 680 mmHg 76%
    03:00 +23°C° 0 mm 7 mps 680 mmHg 77%
    04:00 +22°C° 0 mm 7 mps 680 mmHg 77%
    05:00 +22°C° 0 mm 7 mps 680 mmHg 78%
    06:00 +23°C° 0 mm 7 mps 680 mmHg 76%
    07:00 +23°C° 0 mm 8 mps 681 mmHg 74%
    08:00 +24°C° 0 mm 8 mps 681 mmHg 72%
    09:00 +26°C° 0 mm 8 mps 681 mmHg 68%
    10:00 +27°C° 0 mm 9 mps 682 mmHg 64%
    11:00 +28°C° 0 mm 9 mps 682 mmHg 61%
    12:00 +28°C° 0 mm 9 mps 681 mmHg 60%
    13:00 +28°C° 0 mm 9 mps 681 mmHg 59%
    14:00 +28°C° 0 mm 9 mps 680 mmHg 58%
    15:00 +28°C° 0 mm 9 mps 680 mmHg 59%
    16:00 +28°C° 0 mm 8 mps 680 mmHg 60%
    17:00 +27°C° 0 mm 8 mps 680 mmHg 61%
    18:00 +26°C° 0 mm 8 mps 681 mmHg 64%
    19:00 +26°C° 0 mm 7 mps 681 mmHg 67%
    20:00 +24°C° 0 mm 7 mps 681 mmHg 70%
    21:00 +24°C° 0 mm 7 mps 681 mmHg 72%
    22:00 +23°C° 0 mm 6 mps 682 mmHg 74%
    23:00 +23°C° 0 mm 6 mps 682 mmHg 76%

    19 July, Thursday

    Time Temperature Precipitation Wind Pressure Humidity
    00:00 +23°C° 0 mm 6 mps 681 mmHg 77%
    01:00 +22°C° 0 mm 6 mps 681 mmHg 78%
    02:00 +22°C° 0 mm 6 mps 680 mmHg 79%
    03:00 +22°C° 0 mm 6 mps 680 mmHg 80%
    04:00 +22°C° 0 mm 6 mps 680 mmHg 80%
    05:00 +22°C° 0 mm 6 mps 680 mmHg 81%
    06:00 +23°C° 0 mm 7 mps 681 mmHg 77%
    07:00 +23°C° 0 mm 8 mps 681 mmHg 74%
    08:00 +24°C° 0 mm 8 mps 682 mmHg 70%
    09:00 +26°C° 0 mm 8 mps 682 mmHg 66%
    10:00 +27°C° 0 mm 9 mps 682 mmHg 63%
    11:00 +27°C° 0 mm 9 mps 682 mmHg 59%
    12:00 +28°C° 0 mm 9 mps 682 mmHg 59%
    13:00 +28°C° 0 mm 9 mps 681 mmHg 58%
    14:00 +28°C° 0 mm 9 mps 681 mmHg 58%
    15:00 +27°C° 0 mm 8 mps 681 mmHg 60%
    16:00 +27°C° 0 mm 8 mps 681 mmHg 61%
    17:00 +26°C° 0 mm 8 mps 680 mmHg 63%
    18:00 +26°C° 0 mm 7 mps 681 mmHg 66%
    19:00 +24°C° 0 mm 7 mps 681 mmHg 69%
    20:00 +23°C° 0 mm 7 mps 682 mmHg 71%
    21:00 +23°C° 0 mm 7 mps 682 mmHg 73%
    22:00 +23°C° 0 mm 6 mps 682 mmHg 75%
    23:00 +22°C° 0 mm 6 mps 682 mmHg 76%

    20 July, Friday

    Time Temperature Precipitation Wind Pressure Humidity
    00:00 +22°C° 0 mm 7 mps 682 mmHg 77%
    01:00 +22°C° 0 mm 7 mps 681 mmHg 77%
    02:00 +22°C° 0 mm 7 mps 681 mmHg 78%
    03:00 +22°C° 0 mm 7 mps 680 mmHg 78%
    04:00 +22°C° 0 mm 7 mps 680 mmHg 78%
    05:00 +21°C° 0 mm 7 mps 680 mmHg 79%
    06:00 +22°C° 0 mm 7 mps 681 mmHg 75%
    07:00 +23°C° 0 mm 8 mps 681 mmHg 71%
    08:00 +24°C° 0 mm 8 mps 682 mmHg 67%
    09:00 +26°C° 0 mm 9 mps 682 mmHg 63%
    10:00 +27°C° 0 mm 9 mps 682 mmHg 59%
    11:00 +28°C° 0 mm 9 mps 682 mmHg 54%
    12:00 +28°C° 0.1 mm 9 mps 682 mmHg 54%
    13:00 +29°C° 0.1 mm 9 mps 681 mmHg 54%
    14:00 +29°C° 0.1 mm 8 mps 681 mmHg 53%
    15:00 +28°C° 0.2 mm 8 mps 681 mmHg 55%
    16:00 +28°C° 0.2 mm 8 mps 681 mmHg 56%
    17:00 +27°C° 0.2 mm 8 mps 681 mmHg 58%
    18:00 +27°C° 0 mm 7 mps 681 mmHg 62%
    19:00 +26°C° 0 mm 7 mps 682 mmHg 66%
    20:00 +24°C° 0 mm 6 mps 682 mmHg 70%
    21:00 +23°C° 0 mm 6 mps 682 mmHg 73%
    22:00 +23°C° 0 mm 7 mps 682 mmHg 75%
    23:00 +22°C° 0 mm 7 mps 682 mmHg 77%

    21 July, Saturday

    Time Temperature Precipitation Wind Pressure Humidity
    00:00 +22°C° 0 mm 7 mps 682 mmHg 78%
    01:00 +22°C° 0 mm 7 mps 681 mmHg 78%
    02:00 +22°C° 0 mm 7 mps 681 mmHg 79%
    03:00 +22°C° 0 mm 7 mps 681 mmHg 79%
    04:00 +22°C° 0 mm 7 mps 681 mmHg 79%
    05:00 +22°C° 0 mm 6 mps 680 mmHg 79%
    06:00 +22°C° 0 mm 7 mps 681 mmHg 75%
    07:00 +23°C° 0 mm 8 mps 682 mmHg 71%
    08:00 +24°C° 0 mm 8 mps 682 mmHg 67%
    09:00 +26°C° 0 mm 8 mps 683 mmHg 62%
    10:00 +27°C° 0 mm 9 mps 683 mmHg 58%
    11:00 +28°C° 0 mm 9 mps 683 mmHg 54%
    12:00 +29°C° 0 mm 9 mps 683 mmHg 53%
    13:00 +29°C° 0 mm 9 mps 682 mmHg 51%
    14:00 +29°C° 0 mm 9 mps 682 mmHg 50%
    15:00 +29°C° 0 mm 9 mps 682 mmHg 51%
    16:00 +29°C° 0 mm 9 mps 682 mmHg 52%
    17:00 +28°C° 0 mm 8 mps 681 mmHg 53%
    18:00 +27°C° 0 mm 8 mps 682 mmHg 58%
    19:00 +26°C° 0 mm 7 mps 682 mmHg 62%
    20:00 +24°C° 0 mm 7 mps 683 mmHg 66%
    21:00 +24°C° 0 mm 7 mps 683 mmHg 68%
    22:00 +23°C° 0 mm 7 mps 683 mmHg 70%
    23:00 +23°C° 0 mm 7 mps 683 mmHg 72%
    Show more